[[[{"header":{"parameterUnit":"kt","parameterCategory":2,"dx":1,"dy":1,"la1":30.253999710083008,"la2":30.299108505249023,"lo1":-89.0895004272461,"lo2":-89.04439544677734,"nx":28,"ny":28,"refTime":"2022-10-27T21:00:00:Z","depth":0,"parameterNumber":1,"parameterNumberName":"U-component_of_WINDS"},"data":[-5.5348,-5.5431,-5.5412,-5.5498,-5.5495,-5.5551,-5.5564,-5.558,-5.5587,-5.565,-5.5683,-5.5671,-5.567,-5.5704,-5.5738,-5.5732,-5.5749,-5.5792,-5.5778,-5.56,-5.5574,-5.5549,-5.5529,-5.5796,-5.5796,-5.5965,-5.5967,-5.5968,-5.522,-5.5219,-5.5258,-5.5284,-5.5318,-5.5264,-5.528,-5.5312,-5.5362,-5.5371,-5.5402,-5.5456,-5.5495,-5.5479,-5.5513,-5.5551,-5.5528,-5.5562,-5.556,-5.556,-5.5369,-5.5348,-5.5581,-5.5581,-5.558,-5.558,-5.558,-5.558,-5.4982,-5.5033,-5.5037,-5.508,-5.5087,-5.5104,-5.5149,-5.5133,-5.5171,-5.5205,-5.5174,-5.523,-5.5235,-5.5266,-5.5272,-5.5315,-5.5273,-5.5304,-5.5312,-5.5321,-5.5335,-5.5095,-5.5319,-5.5319,-5.5318,-5.5317,-5.5317,0,-5.4803,-5.4784,-5.482,-5.4851,-5.4881,-5.4903,-5.4919,-5.4946,-5.4896,-5.493,-5.4976,-5.5,-5.5045,-5.5087,-5.5114,-5.5112,-5.506,-5.5052,-5.5073,-5.5091,-5.5103,-5.5099,-5.4789,-5.5046,-5.5043,-5.5042,-5.504,-5.5039,-5.4563,-5.4624,-5.4618,-5.4646,-5.465,-5.4696,-5.4719,-5.4671,-5.4698,-5.471,-5.4757,-5.4797,-5.4827,-5.4904,-5.4884,-5.4918,-5.4893,-5.4994,-5.4898,-5.4912,-5.4896,-5.4894,-5.49,-5.5014,-5.5017,-5.502,-5.5022,0,-5.443,-5.4398,-5.4485,-5.4472,-5.4471,-5.4537,-5.4526,-5.4574,-5.4552,-5.4615,-5.4627,-5.4594,-5.464,-5.4604,-5.4648,-5.4628,-5.4737,-5.471,-5.4735,-5.4728,-5.4815,-5.4808,-5.5102,-5.5138,-5.4859,-5.4862,-5.4864,0,-5.4214,-5.4295,-5.4241,-5.4293,-5.4382,-5.433,-5.4419,-5.441,-5.4412,-5.4461,-5.4395,-5.4442,-5.4387,-5.4429,-5.4399,-5.4481,-5.4489,-5.4478,-5.447,-5.4485,-5.4487,-5.4499,-5.4487,-5.4445,-5.4444,-5.4443,-5.4442,0,-5.4011,-5.4076,-5.416,-5.417,-5.4164,-5.4205,-5.4204,-5.4206,-5.4229,-5.4252,-5.4267,-5.4298,-5.4315,-5.434,-5.4301,-5.4238,-5.44,-5.4305,-5.4389,-5.4391,-5.4428,-5.4427,-5.4694,-5.444,-5.4439,-5.4439,-5.4438,0,-5.3831,-5.3856,-5.3983,-5.3976,-5.3995,-5.4051,-5.4078,-5.4116,-5.4123,-5.4108,-5.4125,-5.4077,-5.4144,-5.4053,-5.4145,-5.4073,-5.4094,-5.409,-5.4095,-5.41,-5.3999,-5.4157,-5.4415,-5.4441,-5.4104,-5.4101,-5.4098,0,-5.3608,-5.3727,-5.3683,-5.3805,-5.3854,-5.3777,-5.3837,-5.3844,-5.3829,-5.3868,-5.3849,-5.3895,-5.3819,-5.3828,-5.3878,-5.3861,-5.3954,-5.3847,-5.3906,-5.3909,-5.3909,-5.4145,-5.4193,-5.4362,-5.4062,-5.4066,-5.4069,0,-5.3431,-5.3423,-5.3448,-5.3457,-5.3458,-5.3499,-5.3568,-5.3601,-5.363,-5.3645,-5.3702,-5.3764,-5.3709,-5.3725,-5.3688,-5.3743,-5.389,-5.3676,-5.3676,-5.3718,-5.404,-5.4086,-5.4114,-5.3853,-5.3857,-5.3861,-5.404,0,-5.317,-5.3224,-5.3289,-5.331,-5.3335,-5.3408,-5.3368,-5.34,-5.3362,-5.3343,-5.3426,-5.3421,-5.3455,-5.3477,-5.344,-5.3576,-5.3548,-5.3489,-5.3398,-5.3552,-5.361,-5.3634,-5.3314,-5.3311,-5.3309,-5.3307,0,0,-5.2966,-5.3043,-5.2992,-5.3057,-5.3075,-5.2993,-5.3075,-5.3083,-5.3102,-5.3116,-5.3065,-5.3152,-5.3151,-5.3255,-5.33,-5.3313,-5.3334,-5.3281,-5.3479,-5.3498,-5.3516,-5.3579,-5.3604,-5.3303,-5.3302,-5.3301,-5.33,0,-5.2863,-5.2863,-5.2944,-5.295,-5.2957,-5.2933,-5.2953,-5.2945,-5.2937,-5.3016,-5.2947,-5.2991,-5.3062,-5.307,-5.3084,-5.3267,-5.3213,-5.328,-5.3393,-5.3455,-5.3478,-5.3498,-5.3564,-5.3589,-5.3294,-5.3294,-5.3295,0,-5.2683,-5.2677,-5.2712,-5.2748,-5.2752,-5.2805,-5.2699,-5.2759,-5.2797,-5.2704,-5.2784,-5.2776,-5.2783,-5.2886,-5.2931,-5.2885,-5.3106,-5.3028,-5.3043,-5.3047,-5.3106,-5.3133,-5.3157,-5.2838,-5.2837,-5.2835,0,0,-5.2599,-5.2648,-5.2626,-5.2723,-5.273,-5.2695,-5.2718,-5.2683,-5.2691,-5.2695,-5.2684,-5.2694,-5.2734,-5.2762,-5.2797,-5.2916,-5.2914,-5.2974,-5.2995,-5.3013,-5.3027,-5.309,-5.3117,-5.283,-5.283,-5.283,0,0,-5.2558,-5.2537,-5.2497,-5.2605,-5.2615,-5.26,-5.266,-5.2611,-5.2639,-5.2626,-5.2569,-5.2569,-5.2664,-5.2659,-5.2592,-5.2765,-5.2675,-5.269,-5.2765,-5.2791,-5.2812,-5.2812,-5.2484,0,0,0,0,0,-5.2432,-5.2539,-5.2504,-5.2516,-5.2561,-5.2619,-5.2625,-5.258,-5.2518,-5.2567,-5.255,-5.249,-5.2611,-5.2551,-5.2563,-5.2639,-5.2761,-5.2773,-5.2785,-5.2908,-5.2936,-5.296,0,0,0,0,0,0,-5.2436,-5.2451,-5.2501,-5.2491,-5.25,-5.2615,-5.25,-5.2491,-5.2512,-5.2499,-5.2495,-5.249,-5.2453,-5.2541,-5.2553,-5.2626,-5.248,-5.2766,-5.2776,-5.2786,-5.2918,-5.2941,-5.2961,0,0,0,0,0,-5.2439,-5.2451,-5.2537,-5.2489,-5.2497,-5.2463,-5.2496,-5.2487,-5.2502,-5.2476,-5.2468,-5.2467,-5.2456,-5.2463,-5.2548,-5.2622,-5.2471,-5.2476,-5.2773,-5.2781,-5.2788,-5.2929,0,0,0,0,0,0,-5.2442,-5.2444,-5.2537,-5.2538,-5.2445,-5.2456,-5.2456,-5.2484,-5.2477,-5.2471,-5.2444,-5.2434,-5.246,-5.2464,-5.247,-5.2623,-5.2464,-5.2469,-5.2472,-5.2779,-5.2785,-5.2791,0,0,0,0,0,0,-5.2437,-5.2445,-5.2538,-5.2485,-5.2479,-5.245,-5.245,-5.2515,-5.2478,-5.2445,-5.2436,-5.244,-5.2451,-5.2466,-5.247,-5.2574,-5.2458,-5.2463,-5.2466,-5.2468,-5.2784,-5.2789,0,0,0,0,0,0,-5.2439,-5.2446,-5.2484,-5.248,-5.2475,-5.2481,-5.2506,-5.2556,-5.2432,-5.2446,-5.242,-5.2414,-5.2454,-5.2457,-5.2471,-5.2573,-5.2574,-5.2458,-5.2462,-5.2464,-5.2465,0,0,0,0,0,0,0,-5.2442,-5.2406,-5.2532,-5.2476,-5.2471,-5.2547,-5.2547,-5.2547,-5.2431,-5.2426,-5.2421,-5.2417,-5.2432,-5.2437,-5.2442,-5.2572,0,0,-5.2458,-5.246,0,0,0,0,0,0,0,0,-5.2402,-5.2405,-5.2532,-5.2532,-5.2532,-5.2547,-5.2547,-5.2547,-5.243,-5.2426,-5.2422,-5.2419,-5.2434,-5.2438,-5.2442,0,0,0,0,0,0,0,0,0,0,0,0,0,0,0,-5.2532,-5.2532,0,-5.2547,-5.2547,-5.2547,-5.243,-5.2427,-5.2423,-5.242,-5.2435,-5.2438,-5.2441,0,0,0,0,0,0,0,0,0,0,0,0,0,0,0,0,0,0,0,0,0,0,0,0,0,0,0,0,0,0,0,0,0,0,0,0,0,0,0,0,0,0,0,0,0,0,0,0,0,0,0,0,0,0,0,0,0,0,0,0,0,0,0,0,0,0,0,0,0]}],[{"header":{"parameterUnit":"kt","parameterCategory":2,"dx":1,"dy":1,"la1":30.253999710083008,"la2":30.299108505249023,"lo1":-89.0895004272461,"lo2":-89.04439544677734,"nx":28,"ny":28,"refTime":"2022-10-27T21:00:00:Z","depth":0,"parameterNumber":2,"parameterNumberName":"V-component_of_WINDS"},"data":[-6.6176,-6.6219,-6.6211,-6.6256,-6.6256,-6.6285,-6.6292,-6.6301,-6.6306,-6.6339,-6.6356,-6.6352,-6.6353,-6.6371,-6.6389,-6.6386,-6.6394,-6.6415,-6.6408,-6.6323,-6.631,-6.6298,-6.6287,-6.6417,-6.6417,-6.6498,-6.6499,-6.6499,-6.6112,-6.6112,-6.6134,-6.615,-6.6168,-6.6142,-6.6152,-6.6169,-6.6196,-6.6202,-6.6219,-6.6247,-6.6268,-6.6262,-6.6281,-6.63,-6.6288,-6.6305,-6.6303,-6.6304,-6.6212,-6.62,-6.6314,-6.6314,-6.6314,-6.6314,-6.6314,-6.6314,-6.5993,-6.6019,-6.6024,-6.6047,-6.6053,-6.6063,-6.6087,-6.6081,-6.6102,-6.6121,-6.6107,-6.6137,-6.6141,-6.6159,-6.6164,-6.6186,-6.6165,-6.6181,-6.6185,-6.6189,-6.6194,-6.6077,-6.6189,-6.6188,-6.6188,-6.6188,-6.6188,0,-6.5903,-6.5894,-6.5915,-6.5933,-6.595,-6.5963,-6.5973,-6.5988,-6.5966,-6.5984,-6.601,-6.6023,-6.6048,-6.6071,-6.6087,-6.6087,-6.6062,-6.6059,-6.6069,-6.6076,-6.608,-6.6077,-6.5927,-6.6056,-6.6054,-6.6054,-6.6053,-6.6053,-6.5781,-6.5814,-6.5815,-6.5831,-6.5834,-6.586,-6.5873,-6.5852,-6.5867,-6.5876,-6.5901,-6.5923,-6.594,-6.5982,-6.5974,-6.5993,-6.5981,-6.6031,-6.5984,-6.5989,-6.598,-6.5978,-6.5981,-6.604,-6.6042,-6.6043,-6.6044,0,-6.5713,-6.57,-6.5748,-6.5746,-6.5746,-6.5781,-6.5779,-6.5804,-6.5796,-6.583,-6.5836,-6.5823,-6.5848,-6.5833,-6.5858,-6.5849,-6.5904,-6.5892,-6.5902,-6.5899,-6.5941,-6.5937,-6.6083,-6.61,-6.5966,-6.5968,-6.5969,0,-6.5604,-6.5648,-6.5625,-6.5654,-6.5701,-6.5678,-6.5725,-6.5723,-6.5727,-6.5753,-6.5723,-6.5748,-6.5724,-6.5747,-6.5734,-6.5776,-6.5781,-6.5776,-6.5772,-6.5779,-6.5779,-6.5786,-6.5779,-6.5763,-6.5762,-6.5761,-6.5761,0,-6.5498,-6.5538,-6.5584,-6.5591,-6.5594,-6.5616,-6.5618,-6.5622,-6.5635,-6.565,-6.5658,-6.5677,-6.5688,-6.5702,-6.5685,-6.5654,-6.5737,-6.569,-6.5732,-6.5732,-6.5751,-6.575,-6.5883,-6.576,-6.576,-6.5759,-6.5759,0,-6.5408,-6.5424,-6.5494,-6.5495,-6.5506,-6.5537,-6.5554,-6.5577,-6.5584,-6.5577,-6.5589,-6.5566,-6.5603,-6.5557,-6.5607,-6.557,-6.5582,-6.5581,-6.5584,-6.5585,-6.5534,-6.5611,-6.5741,-6.5753,-6.5587,-6.5586,-6.5585,0,-6.529,-6.5357,-6.5339,-6.5405,-6.5434,-6.5397,-6.5431,-6.5438,-6.5432,-6.5455,-6.5448,-6.5475,-6.5438,-6.5444,-6.547,-6.5464,-6.5512,-6.5458,-6.5489,-6.549,-6.5488,-6.5607,-6.563,-6.5714,-6.5566,-6.5568,-6.557,0,-6.5197,-6.5201,-6.5214,-6.5221,-6.5228,-6.5252,-6.5291,-6.5312,-6.5328,-6.534,-6.5371,-6.5409,-6.5381,-6.5392,-6.5376,-6.5405,-6.5479,-6.5372,-6.5371,-6.5391,-6.5556,-6.5577,-6.5592,-6.5461,-6.5464,-6.5465,-6.5555,0,-6.5061,-6.5094,-6.513,-6.5147,-6.5163,-6.5204,-6.5188,-6.5207,-6.519,-6.5183,-6.5229,-6.5232,-6.5253,-6.5266,-6.5249,-6.5321,-6.5306,-6.5277,-6.5231,-6.531,-6.5339,-6.5351,-6.5189,-6.5188,-6.5186,-6.5185,0,0,-6.4951,-6.4998,-6.4977,-6.5014,-6.5026,-6.4988,-6.5034,-6.5041,-6.5058,-6.5066,-6.5041,-6.5094,-6.5097,-6.5154,-6.5178,-6.5187,-6.5198,-6.5171,-6.5273,-6.5283,-6.5292,-6.5323,-6.5336,-6.5183,-6.5183,-6.5182,-6.5182,0,-6.4898,-6.4904,-6.495,-6.4957,-6.4967,-6.4958,-6.4969,-6.4971,-6.4969,-6.5015,-6.4982,-6.5008,-6.5051,-6.5058,-6.5068,-6.5164,-6.5137,-6.5172,-6.5228,-6.5261,-6.5272,-6.5283,-6.5316,-6.5328,-6.5179,-6.5179,-6.5179,0,-6.4803,-6.4806,-6.4827,-6.4854,-6.486,-6.4891,-6.4839,-6.4875,-6.4897,-6.4853,-6.4899,-6.4898,-6.4906,-6.4964,-6.4989,-6.4966,-6.5083,-6.5044,-6.5051,-6.5053,-6.5084,-6.5098,-6.511,-6.4948,-6.4947,-6.4946,0,0,-6.476,-6.479,-6.4786,-6.4842,-6.4848,-6.4835,-6.485,-6.4835,-6.4844,-6.4848,-6.4846,-6.4856,-6.488,-6.4897,-6.4919,-6.4985,-6.4984,-6.5016,-6.5027,-6.5036,-6.5043,-6.5076,-6.509,-6.4944,-6.4944,-6.4943,0,0,-6.4739,-6.4736,-6.4718,-6.478,-6.479,-6.479,-6.4824,-6.48,-6.4819,-6.4813,-6.4788,-6.4789,-6.4842,-6.4843,-6.4807,-6.4902,-6.4857,-6.4865,-6.49,-6.4914,-6.4924,-6.4923,-6.4754,0,0,0,0,0,-6.4677,-6.4737,-6.472,-6.4728,-6.4763,-6.4799,-6.4803,-6.4784,-6.4753,-6.478,-6.4775,-6.4746,-6.4818,-6.4786,-6.4794,-6.4834,-6.4908,-6.4914,-6.492,-6.498,-6.4994,-6.5006,0,0,0,0,0,0,-6.468,-6.469,-6.4718,-6.472,-6.4728,-6.4797,-6.4739,-6.4735,-6.4749,-6.4743,-6.4748,-6.4746,-6.473,-6.4781,-6.4788,-6.4827,-6.4751,-6.491,-6.4916,-6.492,-6.4985,-6.4997,-6.5007,0,0,0,0,0,-6.4682,-6.469,-6.4752,-6.4719,-6.4726,-6.4715,-6.4736,-6.4733,-6.4743,-6.4736,-6.4733,-6.4728,-6.4732,-6.4736,-6.4785,-6.4824,-6.4746,-6.4749,-6.4914,-6.4918,-6.4922,-6.4991,0,0,0,0,0,0,-6.4684,-6.4687,-6.4752,-6.4754,-6.4696,-6.4711,-6.4713,-6.4731,-6.4735,-6.4733,-6.4715,-6.471,-6.4733,-6.4737,-6.4741,-6.4824,-6.4742,-6.4745,-6.4746,-6.4917,-6.492,-6.4923,0,0,0,0,0,0,-6.4682,-6.4688,-6.4753,-6.4724,-6.4722,-6.4707,-6.4709,-6.4747,-6.4735,-6.4713,-6.4709,-6.4712,-6.4727,-6.4738,-6.4741,-6.4802,-6.4738,-6.4741,-6.4743,-6.4744,-6.492,-6.4922,0,0,0,0,0,0,-6.4685,-6.469,-6.4724,-6.4722,-6.472,-6.4733,-6.4741,-6.4777,-6.4711,-6.4714,-6.4705,-6.4702,-6.4729,-6.4731,-6.474,-6.4801,-6.4801,-6.4738,-6.474,-6.4742,-6.4742,0,0,0,0,0,0,0,-6.4686,-6.4657,-6.4745,-6.472,-6.4718,-6.4765,-6.4766,-6.4766,-6.4711,-6.4708,-6.4705,-6.4703,-6.4722,-6.4725,-6.4728,-6.48,0,0,-6.4738,-6.4739,0,0,0,0,0,0,0,0,-6.4655,-6.4657,-6.4745,-6.4745,-6.4746,-6.4765,-6.4766,-6.4766,-6.471,-6.4708,-6.4706,-6.4704,-6.4723,-6.4725,-6.4728,0,0,0,0,0,0,0,0,0,0,0,0,0,0,0,-6.4745,-6.4745,0,-6.4765,-6.4766,-6.4766,-6.471,-6.4708,-6.4706,-6.4705,-6.4724,-6.4726,-6.4728,0,0,0,0,0,0,0,0,0,0,0,0,0,0,0,0,0,0,0,0,0,0,0,0,0,0,0,0,0,0,0,0,0,0,0,0,0,0,0,0,0,0,0,0,0,0,0,0,0,0,0,0,0,0,0,0,0,0,0,0,0,0,0,0,0,0,0,0,0]}]]]